Theta_e
295 296 296 297 299 300 301 303 304 304 304 304 304 305 305 305 304 293 288 291 288 283 285 286 286 285 285 285 284 284 286 285 284 280 276 274 273 275 275 278 278 279 277 276 271 271 272 274 280 278 275 274 273 271
294 295 295 295 297 298 299 300 301 302 303 304 305 305 305 305 304 295 287 292 293 286 285 289 286 288 286 287 282 281 282 283 286 280 277 276 272 275 277 272 281 277 278 274 277 275 273 272 272 272 273 273 271 270
293 294 294 294 294 295 297 298 298 299 300 302 303 305 305 304 302 295 286 289 289 284 283 284 284 288 289 287 291 284 283 289 286 287 281 278 277 277 272 274 278 279 280 277 276 272 270 270 270 271 271 270 270 269
292 292 293 293 293 293 294 296 297 297 297 299 301 301 303 304 300 295 288 288 290 284 279 280 288 284 287 291 292 291 289 288 287 285 280 277 278 281 277 279 278 275 278 272 270 270 269 269 269 269 269 269 268 268
292 292 292 292 292 292 293 293 295 296 296 298 301 301 301 300 296 290 287 286 289 287 274 276 284 284 285 289 289 290 288 286 283 281 277 275 277 276 274 275 270 266 272 275 274 272 271 269 268 268 267 266 266 266
292 291 291 291 291 291 292 292 293 294 295 298 299 299 299 298 296 291 285 288 287 287 282 276 281 279 281 284 285 285 285 283 281 279 277 278 278 275 267 266 266 267 267 267 268 268 268 267 267 267 265 265 265 264
292 291 291 291 291 291 291 292 292 293 294 295 299 299 298 293 287 283 283 285 288 287 281 276 274 279 278 282 282 282 284 280 279 276 275 274 274 272 265 265 266 265 265 265 266 267 265 266 264 264 264 264 263 263
292 291 290 291 291 291 291 291 292 292 292 293 295 296 295 293 288 280 283 285 287 283 281 275 274 276 276 277 278 281 279 280 279 274 272 268 270 265 266 263 264 263 263 263 261 262 263 263 263 261 262 261 260 260
292 290 290 291 291 291 291 291 292 291 291 292 294 293 282 276 275 277 287 282 276 278 270 268 269 271 272 273 276 278 279 274 278 270 271 270 263 264 264 262 261 260 260 259 257 256 256 257 256 256 257 257 257 258
292 290 289 291 291 290 290 291 291 289 291 293 279 272 269 271 284 284 273 272 268 264 264 261 261 264 269 269 270 272 273 270 266 266 271 263 263 260 259 257 261 258 257 256 254 253 250 250 250 251 251 250 251 253
292 291 289 290 291 290 290 290 290 285 284 272 265 267 273 281 272 264 261 264 260 261 259 256 258 260 267 264 262 270 264 266 262 263 263 257 263 263 257 256 255 256 254 249 250 249 250 252 251 249 249 248 248 249
291 290 288 289 290 290 289 289 288 273 265 270 270 269 266 265 263 264 252 256 258 258 254 256 258 259 259 265 262 263 261 261 260 259 260 256 262 255 254 253 253 253 252 250 248 249 247 249 248 248 248 249 249 249
291 290 287 288 289 289 288 288 286 283 277 266 266 263 266 261 263 259 258 257 256 249 249 251 255 257 259 262 256 258 258 257 258 257 258 261 258 254 251 250 249 247 247 248 248 248 248 248 248 250 252 250 248 246
291 289 286 287 289 288 287 286 283 276 268 263 261 262 257 255 253 250 251 250 253 253 249 251 250 256 251 258 256 257 257 256 252 253 257 257 256 254 252 251 251 250 248 250 251 249 250 251 253 251 250 249 248 248
290 287 284 285 287 287 285 283 278 263 261 258 259 257 253 248 245 243 241 246 250 249 251 250 251 260 251 254 253 253 254 252 255 258 257 257 253 255 253 252 251 252 250 249 248 251 253 251 251 250 249 247 246 245
289 280 277 286 286 286 282 269 262 258 253 254 252 251 245 249 248 244 242 246 248 254 250 251 248 252 251 251 254 253 253 255 259 255 255 251 249 251 251 251 252 251 251 250 251 252 252 251 250 250 246 244 243 242
281 269 284 285 285 280 278 261 259 253 253 252 250 241 247 246 252 247 245 248 252 250 252 248 253 254 252 250 252 251 255 257 256 253 248 250 254 253 250 250 249 249 250 253 253 252 250 247 244 244 246 245 241 241
271 274 283 284 280 270 260 258 256 255 251 248 254 249 244 244 245 243 242 246 250 247 247 253 255 251 251 252 252 255 254 250 247 248 250 249 247 247 251 251 250 251 252 251 248 244 242 242 243 247 242 241 241 241
279 276 282 281 275 260 262 261 259 257 249 245 247 249 245 243 244 243 242 243 244 246 250 247 250 251 254 253 255 251 247 250 254 253 250 246 248 249 249 248 252 248 246 244 242 245 245 244 245 244 243 242 244 242
280 279 279 276 273 264 260 258 258 258 255 254 248 248 248 249 245 239 240 242 245 245 249 250 254 254 255 254 252 253 252 252 252 249 249 249 246 246 250 249 250 247 245 240 239 242 241 243 242 243 242 243 242 243
273 272 274 268 262 259 258 257 257 253 251 254 249 252 250 249 247 246 247 243 247 250 252 252 249 249 243 243 243 243 248 251 253 255 255 249 247 249 246 247 247 244 247 247 247 246 246 247 246 242 242 242 240 240
266 274 265 268 262 258 257 256 258 255 254 250 252 251 250 250 249 247 247 249 253 255 253 252 250 246 246 248 246 243 244 243 243 246 248 250 248 248 247 249 247 249 248 250 249 250 250 249 246 244 242 241 241 240
270 269 263 263 261 259 255 256 259 256 258 254 251 253 252 253 250 249 251 253 254 253 249 249 247 244 246 243 242 242 240 244 245 244 245 246 246 247 248 251 252 252 251 251 249 249 249 250 249 249 246 243 240 240
269 262 262 260 257 254 254 256 258 257 256 254 255 255 252 252 250 252 256 258 256 250 249 249 247 247 246 246 248 248 246 244 243 244 244 248 249 248 247 249 251 252 252 250 251 250 249 249 250 248 246 243 239 238
265 262 259 256 255 257 258 255 257 257 256 255 256 254 252 250 255 255 257 260 257 255 254 248 247 247 250 248 249 244 240 246 248 250 246 249 248 248 247 248 250 252 252 252 250 251 249 247 248 247 244 241 240 240
262 259 256 255 256 259 258 255 256 258 258 256 255 251 251 256 257 258 258 258 256 255 252 251 251 247 247 250 247 246 247 243 244 246 247 251 252 251 250 251 252 254 253 254 253 251 250 249 247 245 243 243 242 239
261 259 256 255 257 258 257 256 257 257 257 258 255 254 257 258 257 259 255 255 255 252 251 250 249 249 248 247 244 243 240 241 246 247 244 244 247 250 251 252 254 256 254 253 253 250 250 249 246 244 243 239 240 241
258 255 259 258 258 258 261 260 259 260 260 259 259 258 260 260 261 259 256 253 247 244 243 241 242 243 243 243 242 242 241 239 242 243 244 246 246 249 249 249 251 257 253 252 251 249 246 246 243 241 240 242 243 241
256 255 258 258 259 258 259 260 260 256 254 258 261 261 261 259 256 254 253 249 241 244 246 246 245 238 239 238 237 238 239 245 247 248 247 249 251 253 250 250 252 251 250 249 254 249 244 242 242 242 243 243 244 240
255 256 259 257 257 258 255 252 254 251 251 250 250 253 254 255 253 248 243 242 245 246 244 241 238 239 240 240 241 243 239 242 247 251 251 253 253 250 250 251 250 249 246 245 245 243 250 245 246 243 242 241 240 241
252 253 256 258 257 253 251 250 250 250 250 250 248 249 251 248 248 245 244 242 240 238 242 243 240 235 238 239 239 242 246 245 248 251 250 249 249 251 250 249 247 245 240 239 240 240 241 241 239 239 240 243 244 245
250 253 256 258 256 251 251 251 250 250 249 248 247 243 245 244 246 247 244 241 241 243 245 242 242 245 244 242 240 241 247 245 245 248 249 250 250 248 248 246 241 239 239 241 239 240 240 239 239 241 242 242 243 243
255 256 256 255 253 251 249 248 247 247 246 245 245 242 241 241 248 248 244 241 244 246 246 247 245 242 244 245 245 246 250 246 248 257 256 256 253 249 242 238 238 239 241 240 241 241 241 240 241 242 243 243 244 245
Wind_Speed
34 35 35 34 33 34 34 26 11 15 14 14 15 17 18 19 14 6 1 3 4 3 2 2 2 2 5 3 10 8 4 1 3 1 4 4 3 5 3 2 8 9 8 5 3 2 13 4 0 7 4 5 6 3
33 33 32 32 31 29 28 28 25 21 11 11 15 17 18 15 14 6 3 2 4 6 1 1 1 6 5 2 3 3 2 7 6 4 1 4 3 3 6 2 1 5 8 8 9 6 4 5 8 6 4 5 3 1
31 32 31 29 28 27 25 22 22 21 17 11 6 12 17 18 11 8 4 1 4 3 1 3 4 7 8 4 3 4 1 4 4 1 4 2 4 4 5 6 4 2 3 4 6 4 7 10 8 8 7 5 2 2
29 30 30 28 26 25 23 21 18 17 12 9 4 4 9 16 11 8 4 1 4 2 3 2 3 4 12 9 3 3 5 7 5 5 3 3 3 1 3 2 4 3 5 7 5 6 8 4 6 6 5 3 1 3
28 28 29 28 26 24 22 20 18 14 14 6 7 7 14 15 20 12 5 3 2 3 3 1 2 7 10 8 10 8 8 5 2 3 4 1 2 2 2 2 0 1 5 5 4 11 4 6 9 5 5 2 3 5
27 26 28 27 26 25 23 20 17 15 12 8 20 17 19 14 7 4 2 2 4 2 4 2 2 6 8 9 13 11 6 4 3 3 2 2 1 1 4 3 1 2 2 2 6 5 10 14 10 5 5 3 3 3
26 25 26 27 26 24 23 22 19 14 9 10 14 17 15 15 5 3 1 1 4 2 4 3 2 4 7 4 3 3 4 3 3 2 3 2 2 3 3 3 7 5 5 6 7 10 7 6 6 6 6 4 3 2
26 25 24 26 26 25 22 21 19 13 7 8 12 11 12 19 16 5 6 5 1 4 4 4 1 3 9 4 2 4 3 3 4 3 2 2 1 2 1 2 6 6 7 6 6 6 6 11 8 6 5 3 4 4
25 24 23 26 25 26 24 23 20 12 7 9 16 17 5 5 4 1 5 10 6 5 5 4 1 1 8 3 3 3 2 3 2 3 2 2 2 3 4 5 8 6 5 9 5 6 6 6 6 4 3 4 3 3
25 24 22 25 25 25 25 26 23 12 6 13 5 5 5 2 2 6 8 5 8 6 6 5 1 1 4 3 3 1 2 1 2 2 1 4 4 2 2 2 6 8 7 9 6 2 2 1 3 2 2 2 2 2
24 24 21 23 25 25 25 26 26 12 8 5 3 2 4 6 5 5 5 6 4 6 5 1 1 2 5 3 1 4 2 2 3 4 4 3 5 1 2 5 5 6 6 4 4 3 4 5 6 4 2 3 2 3
23 23 19 22 25 23 24 23 22 7 2 3 4 2 3 7 6 9 2 4 7 2 4 2 2 1 3 2 3 4 4 4 2 1 5 4 4 1 3 3 3 5 6 4 2 5 3 4 4 4 3 3 4 4
22 22 16 20 25 22 22 20 16 6 4 4 7 8 6 6 10 6 1 4 2 2 3 3 2 2 4 3 4 4 6 3 1 4 5 5 2 2 4 3 3 2 4 5 2 1 3 3 3 5 5 4 3 2
22 21 12 16 24 23 20 18 13 4 6 7 5 6 5 5 1 5 4 4 3 2 1 2 2 2 1 5 1 6 2 3 4 1 6 4 5 5 4 3 5 5 4 6 6 5 5 5 4 3 4 2 2 2
22 17 9 12 22 22 19 14 10 6 6 5 5 1 1 2 1 2 2 1 2 2 2 2 3 2 3 5 3 4 6 3 6 6 4 4 5 7 7 6 6 7 6 5 4 5 5 5 4 2 2 1 1 1
22 7 5 25 22 21 17 6 6 5 6 6 7 6 2 4 4 3 0 2 2 1 2 3 3 6 3 4 4 5 7 7 5 5 4 2 4 5 5 6 6 5 7 5 4 4 4 5 5 3 2 0 1 2
9 2 18 22 23 13 15 5 5 9 6 6 2 0 3 2 4 4 4 4 1 4 2 4 5 7 2 4 2 5 7 5 5 4 3 4 6 7 6 5 5 5 5 5 4 4 3 2 3 3 1 3 3 3
1 5 15 18 14 6 5 6 6 6 6 1 3 3 1 2 4 1 2 1 3 3 3 5 5 3 6 6 5 6 5 3 2 2 2 3 3 4 5 7 5 5 4 3 4 3 3 3 4 5 4 3 3 3
6 3 11 12 6 5 5 5 4 5 2 2 1 2 3 2 1 1 3 1 1 1 4 3 4 4 6 5 5 3 2 3 4 3 2 2 2 5 5 3 4 5 5 5 4 4 4 5 4 3 3 3 2 3
5 5 10 8 5 4 5 3 1 5 3 3 3 2 3 2 1 2 2 2 3 3 2 3 7 5 5 4 4 3 3 4 5 2 3 3 3 5 6 6 5 4 3 2 1 3 1 2 3 4 3 4 2 4
4 4 7 5 4 7 5 1 4 2 4 3 1 2 3 1 2 1 2 0 3 4 4 5 4 4 2 2 2 2 2 4 5 4 5 3 3 4 3 2 3 2 3 3 4 3 4 4 3 3 3 3 4 4
2 5 3 3 4 4 6 2 3 2 4 2 2 1 3 2 2 2 2 1 5 5 4 4 3 3 1 3 4 4 2 3 2 3 3 6 4 3 4 5 5 5 5 5 4 4 4 3 3 3 3 3 2 3
3 3 3 3 4 4 1 1 2 1 4 3 1 2 1 2 1 1 3 4 5 2 1 2 1 1 1 2 2 3 4 5 3 3 2 2 1 2 3 5 6 5 4 4 4 3 3 4 4 4 2 1 0 2
4 4 2 0 3 3 1 1 1 3 3 3 3 3 2 2 3 2 4 4 3 2 2 2 3 1 1 1 2 3 4 4 2 1 2 4 2 2 3 3 4 3 2 2 3 3 3 3 4 3 2 2 2 3
2 3 2 3 2 4 3 2 2 2 3 3 4 2 3 3 3 3 4 3 2 3 3 2 2 1 3 3 3 4 2 4 5 5 4 3 3 2 1 1 2 3 4 4 3 4 3 2 3 3 3 3 5 6
4 2 4 4 1 4 4 4 5 6 4 4 2 2 2 2 2 6 5 3 3 4 4 5 5 2 3 5 3 1 3 4 4 2 4 6 6 4 4 4 3 3 7 6 4 5 5 4 4 5 4 6 7 4
4 4 1 0 1 3 2 1 1 2 4 5 5 5 3 3 6 5 1 2 2 3 2 3 4 4 3 2 3 3 1 3 3 3 2 2 3 3 3 4 4 3 5 7 6 5 6 6 5 5 5 3 5 5
2 2 3 3 2 0 1 1 3 5 3 2 4 5 7 7 4 2 1 1 1 2 3 1 1 2 2 3 2 1 1 1 1 2 2 2 0 1 2 2 1 5 3 4 5 5 4 4 5 5 5 5 5 3
1 1 2 3 2 2 2 2 0 2 2 2 2 3 3 1 1 1 1 1 1 3 2 1 2 3 2 2 1 1 3 4 5 3 2 3 2 2 3 3 2 3 3 3 4 6 7 5 6 6 7 5 5 3
2 1 1 1 3 3 1 1 1 1 2 2 2 3 3 3 1 1 2 2 2 3 3 2 1 3 0 2 2 3 3 3 3 3 4 3 3 1 3 3 4 3 3 3 3 0 4 3 3 3 1 3 3 4
0 0 1 1 1 1 1 1 1 0 1 1 1 2 3 5 5 2 2 2 3 3 3 0 1 2 3 2 2 2 3 3 7 7 4 2 1 2 3 3 3 3 4 4 4 3 2 1 2 3 5 7 8 7
1 2 2 2 2 2 0 1 1 1 1 1 2 1 3 4 4 4 3 4 3 2 5 3 3 4 6 4 2 3 4 3 3 5 7 3 3 3 3 3 3 4 4 4 3 3 4 5 4 5 6 9 9 9
1 1 2 3 2 1 0 1 2 2 1 1 1 1 1 2 6 4 2 3 3 3 4 4 4 2 4 5 5 3 3 2 4 6 6 5 5 5 3 3 3 3 4 3 3 3 6 6 6 9 9 10 11 11
Wind_Direction
17 19 20 20 28 33 36 52 118 124 143 162 168 174 179 192 187 85 141 323 134 94 52 309 353 251 141 148 190 157 122 212 99 148 120 183 137 199 139 157 173 160 160 182 114 171 252 15 218 191 116 101 114 96
13 17 21 21 21 29 43 36 40 47 66 183 184 186 187 189 185 121 89 350 43 81 53 17 146 55 6 161 178 341 121 138 174 119 176 114 134 159 139 223 146 188 179 176 181 202 54 27 92 88 60 104 90 51
9 12 16 21 20 21 24 42 42 33 26 35 80 188 194 165 142 121 118 84 58 106 13 11 346 331 6 335 294 130 290 142 102 255 126 144 143 130 159 220 121 218 170 142 134 144 129 112 94 91 81 91 77 353
7 7 9 14 17 18 19 22 33 39 30 12 62 84 166 190 115 98 93 13 84 96 109 3 323 15 321 332 12 25 107 41 69 47 102 120 123 201 200 157 145 203 116 130 82 98 104 119 119 130 122 104 56 5
7 3 4 7 8 11 15 15 16 27 29 65 110 91 115 118 101 86 77 25 337 105 140 277 260 354 347 7 75 67 75 87 55 57 46 98 64 103 290 65 136 247 167 167 197 152 116 121 137 127 126 98 36 4
4 3 359 4 4 4 5 9 13 14 39 94 111 106 106 84 73 62 84 59 8 9 106 63 294 352 348 355 51 56 63 65 78 116 137 90 77 130 99 182 167 119 70 343 146 102 84 117 118 113 122 81 46 33
3 4 359 0 2 2 2 0 3 12 31 69 135 133 130 96 73 57 51 14 323 18 89 105 26 20 339 316 29 16 36 81 86 84 59 94 35 47 99 188 150 135 106 72 74 113 94 160 137 123 120 101 78 77
3 3 359 1 1 360 4 0 359 7 42 104 107 136 121 105 124 59 22 19 143 96 74 98 348 23 6 7 34 344 53 30 32 116 43 74 14 30 232 160 128 124 117 99 73 47 82 117 123 116 113 104 89 65
3 2 0 1 3 360 0 2 3 7 8 138 135 119 74 30 56 228 76 78 56 72 97 56 42 241 342 9 1 33 28 66 32 70 38 64 330 226 230 161 167 176 178 150 91 76 75 99 110 88 81 64 79 36
0 1 359 1 4 2 360 358 0 10 64 121 67 61 7 302 275 119 11 28 23 2 30 89 229 284 334 353 33 20 1 101 79 283 348 64 262 297 269 277 136 148 136 135 98 68 71 108 157 161 165 198 199 249
358 358 356 359 1 2 3 1 357 354 71 48 54 129 238 331 59 35 45 57 332 34 15 280 74 37 345 60 162 4 172 11 77 277 106 324 280 215 87 80 77 108 121 89 104 104 110 127 155 171 231 228 233 247
354 356 355 357 360 2 2 6 5 40 140 174 157 87 28 33 33 75 356 336 46 186 323 83 332 359 307 1 85 342 103 36 201 310 67 290 256 320 102 100 84 109 117 109 115 132 131 142 173 177 200 222 220 231
350 351 350 356 358 359 1 5 13 66 87 24 43 44 35 315 38 85 289 312 31 285 305 356 6 3 346 37 59 62 69 205 12 49 228 235 293 172 176 139 116 83 113 117 111 116 156 184 182 181 202 224 220 274
346 350 341 350 355 354 356 0 6 56 67 67 71 25 80 329 289 178 174 182 224 122 120 99 15 80 286 48 99 84 252 59 46 4 240 254 218 180 174 163 124 191 180 170 177 178 182 182 190 205 203 206 185 296
344 346 342 338 348 350 350 2 26 46 72 78 59 108 38 237 326 235 231 26 264 157 120 43 24 80 350 74 37 99 33 295 207 231 232 225 194 162 174 180 188 180 181 188 184 178 183 178 188 222 232 290 188 328
344 1 333 344 344 347 348 29 36 75 53 77 66 91 317 58 313 347 41 256 243 114 60 52 98 53 349 116 57 213 118 223 244 220 231 154 173 180 175 184 192 177 178 182 174 180 170 183 194 217 337 160 240 242
10 6 331 335 342 354 6 68 56 48 102 58 354 24 124 88 160 189 152 205 199 72 161 104 86 199 95 48 271 196 204 217 213 239 219 199 181 188 184 170 175 176 173 175 170 174 179 114 74 68 213 246 254 262
237 281 327 339 352 5 28 39 81 78 70 177 114 237 101 93 127 257 248 251 104 134 120 198 124 112 183 174 254 236 228 249 231 231 229 207 211 186 168 175 174 175 170 161 162 153 146 156 191 220 204 233 292 282
286 310 336 350 16 77 62 15 44 103 164 170 105 66 92 152 273 53 108 30 105 121 107 50 97 196 221 212 213 257 255 205 190 202 216 273 203 171 176 160 151 151 164 168 180 203 199 197 204 189 193 163 229 263
350 3 353 14 24 83 57 4 52 101 143 150 94 99 102 106 149 59 25 37 99 99 58 185 212 213 188 225 199 193 201 162 133 78 292 250 196 153 177 168 186 170 163 185 244 194 186 262 231 204 189 185 178 271
50 331 8 53 43 58 78 64 65 91 127 98 150 130 95 74 67 145 189 224 66 211 239 213 219 241 220 233 205 187 199 168 187 171 187 182 197 167 161 185 138 141 174 186 196 219 202 213 219 185 167 210 219 234
253 5 48 19 77 40 77 359 101 123 78 110 134 126 119 147 179 234 168 98 235 241 203 187 215 173 196 235 213 204 198 140 127 102 71 113 122 156 199 188 157 198 205 211 191 202 214 216 184 179 179 240 235 258
65 53 41 45 65 56 307 241 105 17 119 181 85 94 191 156 105 180 235 227 259 232 171 193 209 152 214 321 328 267 203 168 187 206 201 187 213 165 137 164 182 185 202 225 189 193 208 193 185 189 190 196 204 300
41 61 97 100 70 173 321 95 75 112 102 155 162 188 201 142 154 214 253 238 226 136 176 202 164 94 345 315 252 236 209 170 172 276 207 147 167 248 198 193 181 185 154 138 154 174 182 199 189 177 178 215 242 249
69 289 96 263 0 108 150 143 171 175 166 185 142 169 189 175 182 209 241 257 199 200 179 151 182 214 205 267 278 268 237 160 174 202 239 186 129 88 38 208 211 201 157 157 183 187 195 165 195 196 194 209 239 252
214 248 150 207 214 170 182 157 199 194 148 147 135 109 179 171 171 239 226 208 201 177 178 187 180 171 256 213 227 272 252 175 126 152 266 186 194 173 175 169 188 235 186 191 158 188 192 190 208 209 228 239 236 232
235 252 124 21 346 118 97 66 31 140 172 178 160 166 159 195 237 245 279 221 178 210 171 157 156 170 195 248 261 257 229 184 162 196 239 224 207 190 160 167 195 224 153 172 174 167 181 191 205 213 230 242 230 223
212 151 186 155 166 326 167 191 209 210 174 122 135 174 182 205 238 224 192 71 100 91 88 82 166 162 182 223 219 116 20 84 346 327 328 321 241 179 168 131 130 139 135 149 156 149 167 178 187 201 216 243 263 233
139 201 144 143 142 180 221 239 267 66 3 252 220 213 242 294 333 207 162 132 78 81 72 1 302 358 355 341 347 210 160 150 128 138 190 255 335 258 173 158 144 119 119 121 160 158 183 183 196 207 221 229 251 258
178 303 149 135 167 219 107 355 51 45 28 13 322 286 261 251 253 99 110 88 122 200 204 161 148 88 48 61 327 319 252 206 205 159 163 190 221 225 153 160 161 148 129 133 152 289 318 41 1 18 298 290 277 279
328 74 96 96 154 83 66 81 140 167 33 20 29 276 285 314 307 219 177 185 137 114 114 105 319 189 151 165 159 132 295 232 214 220 208 190 184 168 160 148 134 136 139 142 144 157 173 219 224 257 276 274 274 268
121 176 151 166 154 116 139 16 11 7 356 358 295 334 317 351 290 276 190 123 103 206 227 158 153 245 204 222 220 239 225 254 205 202 197 187 179 164 142 130 130 137 145 149 158 180 202 228 247 246 257 265 265 266
157 133 90 114 129 165 69 111 20 338 14 351 317 330 264 201 246 276 290 201 161 189 202 204 207 214 187 192 210 236 227 214 199 187 173 171 165 160 145 145 138 143 155 173 201 201 230 235 255 260 260 261 268 272